World > North America > United States > Tennessee   City of Clarkesville, TN
Hourly Weather in Clarksville, TennesseeClarksville, Tennessee Hourly Weather

Clarksville, TN Hourly Weather

Hourly Weather Clarksville, TennesseeHourly Weather in Clarksville, TN
Lat: 36.56N, Lon: 87.35W  ICAO: KCKV
Web Search

Helpful Tip: Type the letters wx in the search engine next time you need to find us.

Feedback

Clarksville Hourly Weather

36 Hour Weather Scroll   °F Click to change Clarksville hourly weather to Imperial units.Click to change Clarksville hourly weather to Metric units. °C
Currently, Partly Cloudy, temperature is 67°F19°C, dew point 52°F11°C, humidity 59%. Wind direction is NW at 20 mph32 km/h with visibility of 10.00 mi16 km. Barometric pressure is 30.06 in1018 mb.

Sep 22
3:00 PM

Sep 22
4:00 PM

Sep 22
5:00 PM

Sep 22
6:00 PM

Sep 22
7:00 PM

Sep 22
8:00 PM

Sep 22
9:00 PM

Sep 22
10:00 PM

Sep 22
11:00 PM

Sep 23
MIDNIGHT

Sep 23
1:00 AM

Sep 23
2:00 AM

Sep 23
3:00 AM

Sep 23
4:00 AM

Sep 23
5:00 AM

Sep 23
6:00 AM

Sep 23
7:00 AM

Sep 23
8:00 AM

Sep 23
9:00 AM

Sep 23
10:00 AM

Sep 23
11:00 AM

Sep 23
NOON

Sep 23
1:00 PM

Sep 23
2:00 PM

Sep 23
3:00 PM

Sep 23
4:00 PM

Sep 23
5:00 PM

Sep 23
6:00 PM

Sep 23
7:00 PM

Sep 23
8:00 PM

Sep 23
9:00 PM

Sep 23
10:00 PM

Sep 23
11:00 PM

Sep 24
MIDNIGHT

Sep 24
1:00 AM

Sep 24
2:00 AM
Cloudy Cloudy Cloudy Mostly Cloudy Mostly Cloudy Mostly Cloudy Clear Clear Clear Clear Clear Clear Clear Clear Clear Clear Clear Clear Clear Clear Clear Clear Clear Clear Clear Clear Clear Clear Clear Clear Clear Clear Clear Clear Clear Clear
Cloudy Cloudy Cloudy Mostly Cloudy Mostly Cloudy Mostly Cloudy Clear Clear Clear Clear Clear Clear Clear Clear Clear Clear Clear Clear Clear Clear Clear Clear Clear Clear Clear Clear Clear Clear Clear Clear Clear Clear Clear Clear Clear Clear
66°F19°C 66°F19°C 64°F18°C 61°F16°C 59°F15°C 57°F14°C 56°F13°C 54°F12°C 53°F12°C 53°F12°C 52°F11°C 51°F11°C 51°F11°C 50°F10°C 49°F9°C 49°F9°C 48°F9°C 52°F11°C 56°F13°C 60°F16°C 63°F17°C 65°F18°C 68°F20°C 69°F21°C 69°F21°C 70°F21°C 68°F20°C 65°F18°C 63°F17°C 60°F16°C 58°F14°C 55°F13°C 54°F12°C 52°F11°C 51°F11°C 50°F10°C
- - - - - - - - - - - - - - - - - - - - - - - - - - - - - - - - - - - -
19% 19% 19% 19% 19% 0% 0% 0% 0% 0% 0% 2% 2% 2% 2% 2% 2% 2% 2% 2% 2% 2% 2% 0% 0% 0% 0% 0% 0% 1% 1% 1% 1% 1% 1% 3%
54°F12°C 53°F12°C 53°F12°C 52°F11°C 52°F11°C 52°F11°C 51°F11°C 51°F11°C 50°F10°C 50°F10°C 49°F9°C 48°F9°C 48°F9°C 47°F8°C 47°F8°C 46°F8°C 46°F8°C 47°F8°C 47°F8°C 48°F9°C 47°F8°C 45°F7°C 44°F7°C 44°F7°C 43°F6°C 43°F6°C 44°F7°C 45°F7°C 46°F8°C 47°F8°C 47°F8°C 48°F9°C 48°F9°C 47°F8°C 47°F8°C 47°F8°C
65% 63% 67% 72% 78% 83% 83% 90% 90% 90% 89% 89% 89% 89% 93% 89% 93% 83% 72% 65% 56% 48% 42% 41% 39% 38% 42% 48% 54% 62% 67% 77% 80% 83% 86% 89%
NNW NNW NNW NNW NNW NNW NNW NNW NW WNW W W W WNW WNW W W WNW NW NW NW NW NW NW NW NW NW NW NW SW SE NE E SE S SE
14 mph 14 mph 14 mph 13 mph 13 mph 13 mph 2 mph 2 mph 2 mph 3 mph 3 mph 3 mph 4 mph 4 mph 4 mph 3 mph 3 mph 3 mph 9 mph 9 mph 9 mph 11 mph 11 mph 11 mph 7 mph 7 mph 7 mph 2 mph 2 mph 2 mph 1 mph 1 mph 1 mph 1 mph 1 mph 1 mph
10 mi16 km 10 mi16 km 10 mi16 km 10 mi16 km 10 mi16 km 10 mi16 km 10 mi16 km 10 mi16 km 10 mi16 km 10 mi16 km 10 mi16 km 10 mi16 km 10 mi16 km 10 mi16 km 10 mi16 km 10 mi16 km 10 mi16 km 10 mi16 km 10 mi16 km 10 mi16 km 10 mi16 km 10 mi16 km 10 mi16 km 10 mi16 km 10 mi16 km 10 mi16 km 10 mi16 km 10 mi16 km 10 mi16 km 10 mi16 km 10 mi16 km 10 mi16 km 10 mi16 km 6 mi10 km 6 mi10 km 6 mi10 km
Hour (CDT)
Weather
Clouds
Temperature
Precip. Type
POP
Dewpoint
Humidity
Wind Direction
Wind Speed
Visibility
POP = Probability of Precipitation. ** Indicates missing data/values from model statistics.

24 Hour Forecast

Late Today - Partly cloudy with a 20% chance of showers. Northwest winds 10 to 15 mph.
Tonight - Mostly clear. Lows in the upper 40s. Northwest winds up to 5 mph.

48 Hour Forecast API Feed


Wed, Sep 22
3:00 pm

Wed, Sep 22
4:00 pm

Wed, Sep 22
5:00 pm

Wed, Sep 22
6:00 pm

Wed, Sep 22
7:00 pm

Wed, Sep 22
8:00 pm

Wed, Sep 22
9:00 pm

Wed, Sep 22
10:00 pm

Wed, Sep 22
11:00 pm

Thu, Sep 23
Midnight

Thu, Sep 23
1:00 am

Thu, Sep 23
2:00 am

Thu, Sep 23
3:00 am

Thu, Sep 23
4:00 am

Thu, Sep 23
5:00 am

Thu, Sep 23
6:00 am

Thu, Sep 23
7:00 am

Thu, Sep 23
8:00 am

Thu, Sep 23
9:00 am

Thu, Sep 23
10:00 am

Thu, Sep 23
11:00 am

Thu, Sep 23
Noon

Thu, Sep 23
1:00 pm

Thu, Sep 23
2:00 pm

Thu, Sep 23
3:00 pm

Thu, Sep 23
4:00 pm

Thu, Sep 23
5:00 pm

Thu, Sep 23
6:00 pm

Thu, Sep 23
7:00 pm

Thu, Sep 23
8:00 pm

Thu, Sep 23
9:00 pm

Thu, Sep 23
10:00 pm

Thu, Sep 23
11:00 pm

Fri, Sep 24
Midnight

Fri, Sep 24
1:00 am

Fri, Sep 24
2:00 am

Fri, Sep 24
3:00 am

Fri, Sep 24
4:00 am

Fri, Sep 24
5:00 am

Fri, Sep 24
6:00 am

Fri, Sep 24
7:00 am

Fri, Sep 24
8:00 am

Fri, Sep 24
9:00 am

Fri, Sep 24
10:00 am

Fri, Sep 24
11:00 am

Fri, Sep 24
Noon

Fri, Sep 24
1:00 pm

Fri, Sep 24
2:00 pm
CloudyLight Rain ShowerPartly CloudyPatchy Rain PossiblePartly CloudyPartly CloudyPartly CloudyPartly CloudyPartly CloudyMistMistMistMistMistMistMistSunnySunnySunnySunnySunnySunnyPartly CloudyPartly CloudyPartly CloudyPartly CloudyPartly CloudyPartly CloudyPartly CloudyPartly CloudyPartly CloudyPartly CloudyClearClearClearClearClearClearClearClearSunnySunnySunnySunnyPartly CloudySunnySunnySunny
Cloudy Light rain showers Partly cloudy Patchy rain possible Partly cloudy Partly cloudy Partly cloudy Partly cloudy Partly cloudy Mist Mist Mist Mist Mist Mist Mist Sunny Sunny Sunny Sunny Sunny Sunny Partly cloudy Partly cloudy Partly cloudy Partly cloudy Partly cloudy Partly cloudy Partly cloudy Partly cloudy Partly cloudy Partly cloudy Clear Clear Clear Clear Clear Clear Clear Clear Sunny Sunny Sunny Sunny Partly cloudy Sunny Sunny Sunny
66°F
19°C
64°F
18°C
62°F
17°C
60°F
15°C
54°F
12°C
53°F
12°C
52°F
11°C
51°F
11°C
51°F
10°C
50°F
10°C
50°F
10°C
49°F
10°C
49°F
9°C
48°F
9°C
48°F
9°C
47°F
9°C
47°F
8°C
51°F
11°C
56°F
13°C
60°F
16°C
67°F
19°C
69°F
21°C
71°F
22°C
69°F
21°C
70°F
21°C
70°F
21°C
68°F
20°C
65°F
18°C
59°F
15°C
56°F
13°C
54°F
12°C
53°F
12°C
52°F
11°C
51°F
11°C
51°F
10°C
50°F
10°C
49°F
10°C
49°F
9°C
48°F
9°C
48°F
9°C
49°F
9°C
54°F
12°C
59°F
15°C
64°F
18°C
70°F
21°C
73°F
23°C
74°F
24°C
74°F
24°C
51°F
11°C
53°F
12°C
55°F
13°C
54°F
12°C
51°F
11°C
50°F
10°C
50°F
10°C
49°F
10°C
49°F
9°C
49°F
9°C
48°F
9°C
48°F
9°C
47°F
9°C
47°F
8°C
46°F
8°C
46°F
8°C
46°F
8°C
47°F
8°C
45°F
7°C
44°F
7°C
47°F
8°C
47°F
8°C
47°F
8°C
44°F
7°C
44°F
7°C
46°F
8°C
49°F
10°C
51°F
10°C
46°F
8°C
44°F
7°C
44°F
7°C
44°F
7°C
44°F
7°C
44°F
7°C
44°F
7°C
44°F
7°C
44°F
7°C
44°F
7°C
44°F
7°C
44°F
7°C
44°F
7°C
46°F
8°C
48°F
9°C
49°F
10°C
52°F
11°C
52°F
11°C
52°F
11°C
51°F
11°C
30.03 in
1017 mb
30.06 in
1018 mb
30.06 in
1018 mb
30.06 in
1018 mb
30.09 in
1019 mb
30.09 in
1019 mb
30.09 in
1019 mb
30.09 in
1019 mb
30.09 in
1019 mb
30.09 in
1019 mb
30.09 in
1019 mb
30.09 in
1019 mb
30.06 in
1018 mb
30.06 in
1018 mb
30.06 in
1018 mb
30.09 in
1019 mb
30.09 in
1019 mb
30.12 in
1020 mb
30.12 in
1020 mb
30.12 in
1020 mb
30.12 in
1020 mb
30.09 in
1019 mb
30.09 in
1019 mb
30.06 in
1018 mb
30.03 in
1017 mb
30.03 in
1017 mb
30.03 in
1017 mb
30.03 in
1017 mb
30.03 in
1017 mb
30.06 in
1018 mb
30.06 in
1018 mb
30.09 in
1019 mb
30.09 in
1019 mb
30.09 in
1019 mb
30.09 in
1019 mb
30.09 in
1019 mb
30.09 in
1019 mb
30.12 in
1020 mb
30.12 in
1020 mb
30.12 in
1020 mb
30.15 in
1021 mb
30.15 in
1021 mb
30.18 in
1022 mb
30.18 in
1022 mb
30.18 in
1022 mb
30.15 in
1021 mb
30.15 in
1021 mb
30.12 in
1020 mb
59%67%77%82%89%92%93%94%94%95%95%95%95%95%95%95%94%84%68%56%49%45%42%41%40%41%51%60%61%65%69%71%73%75%78%80%83%84%85%86%84%76%66%59%53%48%45%44%
NNWNNWNNNNNWNNWNNWWNWWWWNWWNWNWNWNWWNWNWNWNWNNWNNWNNWNNWNWNWNNWNNEENEESEESESESESSESSSSSSSSSWSSWSSWSSESEESE
17 mph
27 km/h
15 mph
25 km/h
12 mph
19 km/h
8 mph
13 km/h
4 mph
7 km/h
3 mph
5 km/h
3 mph
5 km/h
2 mph
4 km/h
3 mph
4 km/h
4 mph
6 km/h
5 mph
8 km/h
5 mph
8 km/h
6 mph
9 km/h
6 mph
10 km/h
6 mph
9 km/h
6 mph
9 km/h
5 mph
8 km/h
5 mph
8 km/h
7 mph
12 km/h
8 mph
13 km/h
9 mph
15 km/h
10 mph
15 km/h
9 mph
15 km/h
9 mph
14 km/h
8 mph
12 km/h
7 mph
11 km/h
4 mph
7 km/h
2 mph
3 km/h
1 mph
2 km/h
2 mph
3 km/h
2 mph
3 km/h
3 mph
5 km/h
4 mph
6 km/h
4 mph
6 km/h
4 mph
7 km/h
4 mph
7 km/h
4 mph
6 km/h
3 mph
5 km/h
3 mph
5 km/h
2 mph
4 km/h
2 mph
4 km/h
2 mph
3 km/h
2 mph
4 km/h
3 mph
4 km/h
2 mph
4 km/h
2 mph
3 km/h
2 mph
3 km/h
3 mph
4 km/h
0%58%0%64%0%0%0%0%0%0%0%0%0%0%0%0%0%0%0%0%0%0%0%0%0%0%0%0%0%0%0%0%0%0%0%0%0%0%0%0%0%0%0%0%0%0%0%0%
6 mi
10 km
6 mi
10 km
6 mi
10 km
6 mi
10 km
6 mi
10 km
6 mi
10 km
6 mi
10 km
6 mi
10 km
6 mi
10 km
1 mi
2 km
1 mi
2 km
1 mi
2 km
1 mi
2 km
1 mi
2 km
1 mi
2 km
1 mi
2 km
6 mi
10 km
6 mi
10 km
6 mi
10 km
6 mi
10 km
6 mi
10 km
6 mi
10 km
6 mi
10 km
6 mi
10 km
6 mi
10 km
6 mi
10 km
6 mi
10 km
6 mi
10 km
6 mi
10 km
6 mi
10 km
6 mi
10 km
6 mi
10 km
6 mi
10 km
6 mi
10 km
6 mi
10 km
6 mi
10 km
6 mi
10 km
6 mi
10 km
6 mi
10 km
6 mi
10 km
6 mi
10 km
6 mi
10 km
6 mi
10 km
6 mi
10 km
6 mi
10 km
6 mi
10 km
6 mi
10 km
6 mi
10 km

Day/Time
Weather
Condition
Temperature
Dew Point
Pressure
Humidity
Wind Direction
Wind Speed
Prob Precip %
Visibility
Prob Precip % = Probability of Precipitation.